< < Back
Terminal Aerodrome Forecast


Current Version              Previous Versions:   1  2  3  4  5  6  7  8  9  

Terminal Aerodrome Forecast

609
FTUS44 KMRX 242320
TAFCHA
TAF
KCHA 242320Z 2500/2524 01003KT P6SM SCT200
     FM250000 00000KT P6SM SCT250
     FM251300 01005KT P6SM SCT150 BKN250=

Latest METAR

547
SAUS80 KWBC 251900 RRB
MTRCHA
METAR KCHA 251853Z 00000KT 10SM FEW042 23/10 A3004 RMK AO2 SLP168
T02280100


USA.gov is the U.S. government's official web portal to all federal, state and local government web resources and services.